UTTI current weather conditions

sailwx.info

Wind from 220 at 7 knots

Air temperature 28.0° C
Dewpoint 15.0° C

Last reported at 2014-Jul-29 11:20 UTC.
Time now 2014-Jul-29 12:42 UTC

Location: N 60°54' E 026°56'.
View on Google Maps.

See reports from other nearby stations

  
Tides and Currents Weather Stations Pressure Air Temp Water Temp Dewpoint Dewpoint Depression Visibility Wind Speed Wind Dir Waves Ship Positions
date/time (UTC)wind fromknots sea level pressurealtimeterstation pressurevisibilityair tempwater tempwave heightnotes
2014-Jul-29 11:20 220 7 28.0
2014-Jul-29 10:50 200 9 5.428.0
2014-Jul-29 10:20 200 9 5.427.0
2014-Jul-29 09:50 200 10 5.427.0
2014-Jul-29 09:20 250 6 5.426.0
2014-Jul-29 08:50 240 7 5.426.0
2014-Jul-29 08:20 250 7 5.426.0
2014-Jul-29 07:53 240 5 25.0
2014-Jul-29 07:20 25.0
2014-Jul-29 06:50 280 7 24.0
2014-Jul-29 06:20 270 4 24.0
2014-Jul-29 05:50 280 6 24.0
2014-Jul-29 05:20 280 5 23.0
2014-Jul-29 04:50 270 3 22.0
2014-Jul-29 04:20 280 3 21.0
2014-Jul-29 03:50 280 1 21.0
2014-Jul-29 03:20 270 3 20.0
2014-Jul-29 02:50 280 4 20.0
2014-Jul-29 02:20 270 4 19.0
2014-Jul-29 01:50 260 2 19.0
2014-Jul-29 01:20 230 6 20.0
2014-Jul-29 00:50 220 4 5.420.0 Light rain.
2014-Jul-29 00:20 190 6 19.0
2014-Jul-28 23:50 170 2 18.0
2014-Jul-28 23:20 200 5 19.0
2014-Jul-28 22:50 190 6 19.0
2014-Jul-28 22:20 190 6 21.0
2014-Jul-28 21:50 190 6 21.0
2014-Jul-28 21:20 170 4 21.0
2014-Jul-28 20:50 180 4 21.0
2014-Jul-28 20:20 170 4 22.0
2014-Jul-28 19:50 180 4 22.0
2014-Jul-28 19:20 190 3 23.0
2014-Jul-28 18:50 170 6 23.0
2014-Jul-28 18:20 180 5 24.0
2014-Jul-28 17:50 160 4 25.0
2014-Jul-28 17:20 280 4 25.0
2014-Jul-28 16:50 280 5 24.0
2014-Jul-28 16:20 260 6 25.0
2014-Jul-28 15:50 280 4 26.0
2014-Jul-28 15:20 290 8 26.0
2014-Jul-28 14:50 200 10 28.0
2014-Jul-28 14:20 200 11 29.0
2014-Jul-28 13:50 180 12 29.0
2014-Jul-28 13:20 200 14 29.0
2014-Jul-28 12:50 210 13 5.429.0
2014-Jul-28 12:20 180 12 5.430.0
2014-Jul-28 11:50 190 12 5.430.0
2014-Jul-28 11:20 210 13 29.0
2014-Jul-28 10:50 220 11 30.0
2014-Jul-28 10:20 220 11 28.0
2014-Jul-28 09:50 190 9 28.0
2014-Jul-28 09:20 190 9 28.0
2014-Jul-28 08:50 180 6 27.0
2014-Jul-28 08:20 200 7 26.0
2014-Jul-28 07:50 220 7 26.0
2014-Jul-28 07:20 220 6 25.0
2014-Jul-28 06:50 230 3 25.0
2014-Jul-28 06:20 190 5 23.0
2014-Jul-28 05:50 170 4 22.0
2014-Jul-28 04:50 170 4 21.0
2014-Jul-28 04:20 150 4 20.0
2014-Jul-28 03:50 120 2 21.0
2014-Jul-28 03:20 100 2 20.0
2014-Jul-28 02:50 17.0
2014-Jul-28 02:20 18.0
2014-Jul-28 01:50 18.0
2014-Jul-28 01:20 100 2 19.0
2014-Jul-28 00:50 100 2 19.0
2014-Jul-28 00:20 100 3 19.0
2014-Jul-27 23:50 110 3 18.0
2014-Jul-27 23:20 18.0
2014-Jul-27 22:50 18.0
2014-Jul-27 22:20 200 3 21.0
2014-Jul-27 21:50 200 4 21.0
2014-Jul-27 21:20 200 4 22.0
2014-Jul-27 20:50 180 4 21.0
2014-Jul-27 20:20 170 3 22.0
2014-Jul-27 19:50 180 4 23.0
2014-Jul-27 19:20 190 3 24.0
2014-Jul-27 18:50 190 3 24.0
2014-Jul-27 18:20 180 4 25.0
2014-Jul-27 17:50 180 4 26.0
2014-Jul-27 17:20 210 6 27.0
2014-Jul-27 16:50 210 8 28.0
2014-Jul-27 16:20 200 8 28.0
2014-Jul-27 15:50 210 9 28.0
2014-Jul-27 15:20 200 8 29.0
2014-Jul-27 14:50 190 7 29.0
2014-Jul-27 14:20 200 9 30.0
2014-Jul-27 13:50 180 8 30.0
2014-Jul-27 13:20 30.0
2014-Jul-27 12:50 240 8 30.0
2014-Jul-27 12:20 30.0